Terminal Aerodrome Forecast
Issued by NWS

Home | Current Version | Previous Version | Text Only | Print | Product List | Glossary On
Versions: 1 2 3 4 5 6 7 8 9 10 11 12 13 14 15 16
000
FTUS43 KAPX 291725
TAFMBL
TAF
KMBL 291725Z 2918/3018 25010G14KT P6SM SKC
     FM291900 26012G22KT P6SM SKC
     FM300100 27007KT P6SM SKC
     FM301400 28011G18KT P6SM SCT050
      AMD LTD TO CLD VIS AND WIND=

USA.gov is the U.S. government's official web portal to all federal, state and local government web resources and services.